Time,TemperatureF,DewpointF,PressureIn,WindDirection,WindDirectionDegrees,WindSpeedMPH,WindSpeedGustMPH,Humidity,HourlyPrecipIn,Conditions,Clouds,dailyrainin,SoftwareType,DateUTC
2013-04-15 00:03:00,57.0,45.0,30.11,SE,144,0.0,0.0,63,0.00,,,0.00,,2013-04-15 04:03:00,
2013-04-15 00:13:00,57.0,45.0,30.11,SE,144,0.0,0.0,63,0.00,,,0.00,,2013-04-15 04:13:00,
2013-04-15 00:23:00,57.0,45.0,30.11,SSE,152,0.0,3.0,64,0.00,,,0.00,,2013-04-15 04:23:00,
2013-04-15 00:33:00,57.0,45.0,30.12,SSE,151,0.0,0.0,64,0.00,,,0.00,,2013-04-15 04:33:00,
2013-04-15 00:43:00,57.0,45.0,30.12,SSE,151,0.0,0.0,64,0.00,,,0.00,,2013-04-15 04:43:00,
2013-04-15 00:52:00,57.0,45.0,30.13,SE,144,0.0,3.0,63,0.00,,,0.00,,2013-04-15 04:52:00,
2013-04-15 01:03:00,57.0,45.0,30.12,SSE,157,0.0,4.0,63,0.00,,,0.00,,2013-04-15 05:03:00,
2013-04-15 01:13:00,57.0,45.0,30.12,SSE,157,0.0,4.0,63,0.00,,,0.00,,2013-04-15 05:13:00,
2013-04-15 01:23:00,57.0,45.0,30.12,SSE,155,0.0,0.0,64,0.00,,,0.00,,2013-04-15 05:23:00,
2013-04-15 01:33:00,57.0,45.0,30.12,SSE,156,0.0,0.0,64,0.00,,,0.00,,2013-04-15 05:33:00,
2013-04-15 01:42:00,57.0,45.0,30.12,SSE,156,0.0,0.0,64,0.00,,,0.00,,2013-04-15 05:42:00,
2013-04-15 01:53:00,57.0,45.0,30.11,SSE,151,1.0,4.0,65,0.00,,,0.00,,2013-04-15 05:53:00,
2013-04-15 02:02:00,57.0,46.0,30.12,SSE,152,0.0,0.0,66,0.00,,,0.00,,2013-04-15 06:02:00,
2013-04-15 02:12:00,57.0,46.0,30.12,SSE,152,0.0,0.0,66,0.00,,,0.00,,2013-04-15 06:12:00,
2013-04-15 02:23:00,57.0,46.0,30.12,SSE,152,0.0,0.0,66,0.00,,,0.00,,2013-04-15 06:23:00,
2013-04-15 02:33:00,57.0,46.0,30.12,SSE,150,0.0,0.0,66,0.00,,,0.00,,2013-04-15 06:33:00,
2013-04-15 02:42:00,57.0,46.0,30.12,SSE,150,0.0,0.0,66,0.00,,,0.00,,2013-04-15 06:42:00,
2013-04-15 02:52:00,57.0,46.0,30.12,SSE,152,0.0,0.0,66,0.00,,,0.00,,2013-04-15 06:52:00,
2013-04-15 03:03:00,56.0,45.0,30.13,South,191,0.0,6.0,67,0.00,,,0.00,,2013-04-15 07:03:00,
2013-04-15 03:42:00,57.0,45.0,30.14,South,188,0.0,1.0,65,0.00,,,0.00,,2013-04-15 07:42:00,
2013-04-15 03:54:00,57.0,45.0,30.16,South,173,0.0,0.0,63,0.00,,,0.00,,2013-04-15 07:54:00,
2013-04-15 04:03:00,57.0,45.0,30.15,South,171,0.0,1.0,64,0.00,,,0.00,,2013-04-15 08:03:00,
2013-04-15 04:13:00,57.0,45.0,30.15,South,171,0.0,1.0,64,0.00,,,0.00,,2013-04-15 08:13:00,
2013-04-15 04:22:00,56.0,45.0,30.16,South,171,0.0,0.0,66,0.00,,,0.00,,2013-04-15 08:22:00,
2013-04-15 04:34:00,56.0,45.0,30.16,South,171,0.0,0.0,66,0.00,,,0.00,,2013-04-15 08:34:00,
2013-04-15 04:42:00,56.0,45.0,30.16,South,171,0.0,0.0,66,0.00,,,0.00,,2013-04-15 08:42:00,
2013-04-15 04:52:00,56.0,45.0,30.16,South,171,0.0,0.0,67,0.00,,,0.00,,2013-04-15 08:52:00,
2013-04-15 05:03:00,56.0,46.0,30.16,South,171,0.0,0.0,68,0.00,,,0.00,,2013-04-15 09:03:00,
2013-04-15 05:12:00,56.0,46.0,30.16,South,171,0.0,0.0,68,0.00,,,0.00,,2013-04-15 09:12:00,
2013-04-15 05:23:00,56.0,45.0,30.16,South,171,0.0,0.0,67,0.00,,,0.00,,2013-04-15 09:23:00,
2013-04-15 05:33:00,55.0,44.0,30.16,South,171,0.0,0.0,67,0.00,,,0.00,,2013-04-15 09:33:00,
2013-04-15 05:43:00,55.0,44.0,30.16,South,171,0.0,0.0,67,0.00,,,0.00,,2013-04-15 09:43:00,
2013-04-15 05:53:00,55.0,45.0,30.17,South,169,0.0,0.0,68,0.00,,,0.00,,2013-04-15 09:53:00,
2013-04-15 06:03:00,55.0,45.0,30.17,South,169,0.0,0.0,68,0.00,,,0.00,,2013-04-15 10:03:00,
2013-04-15 06:13:00,55.0,45.0,30.17,South,169,0.0,0.0,68,0.00,,,0.00,,2013-04-15 10:13:00,
2013-04-15 06:23:00,55.0,45.0,30.18,South,175,0.0,4.0,70,0.00,,,0.00,,2013-04-15 10:23:00,
2013-04-15 06:33:00,54.0,46.0,30.19,South,175,0.0,0.0,75,0.00,,,0.00,,2013-04-15 10:33:00,
2013-04-15 06:42:00,54.0,46.0,30.19,South,175,0.0,0.0,75,0.00,,,0.00,,2013-04-15 10:42:00,
2013-04-15 06:53:00,54.0,47.0,30.19,South,173,0.0,0.0,77,0.00,,,0.00,,2013-04-15 10:53:00,
2013-04-15 07:03:00,54.0,47.0,30.20,South,173,0.0,0.0,78,0.00,,,0.00,,2013-04-15 11:03:00,
2013-04-15 07:13:00,54.0,47.0,30.20,South,173,0.0,0.0,78,0.00,,,0.00,,2013-04-15 11:13:00,
2013-04-15 07:23:00,54.0,48.0,30.20,South,173,0.0,0.0,80,0.00,,,0.00,,2013-04-15 11:23:00,
2013-04-15 07:32:00,54.0,48.0,30.21,South,173,0.0,0.0,81,0.00,,,0.00,,2013-04-15 11:32:00,
2013-04-15 07:43:00,54.0,48.0,30.21,South,173,0.0,0.0,81,0.00,,,0.00,,2013-04-15 11:43:00,
2013-04-15 07:53:00,54.0,48.0,30.21,South,171,0.0,1.0,81,0.00,,,0.00,,2013-04-15 11:53:00,
2013-04-15 08:04:00,54.0,48.0,30.21,SSE,167,0.0,0.0,81,0.00,,,0.00,,2013-04-15 12:04:00,
2013-04-15 08:14:00,54.0,48.0,30.21,SSE,167,0.0,0.0,81,0.00,,,0.00,,2013-04-15 12:14:00,
2013-04-15 08:23:00,55.0,49.0,30.21,SSE,167,0.0,1.0,80,0.00,,,0.00,,2013-04-15 12:23:00,
2013-04-15 08:33:00,55.0,49.0,30.22,SSE,163,0.0,2.0,81,0.00,,,0.00,,2013-04-15 12:33:00,
2013-04-15 08:43:00,55.0,49.0,30.22,SSE,163,0.0,2.0,81,0.00,,,0.00,,2013-04-15 12:43:00,
2013-04-15 08:53:00,55.0,49.0,30.22,SSE,163,0.0,1.0,81,0.00,,,0.00,,2013-04-15 12:53:00,
2013-04-15 09:13:00,55.0,49.0,30.22,SSE,163,0.0,1.0,81,0.00,,,0.00,,2013-04-15 13:13:00,
2013-04-15 09:23:00,56.0,50.0,30.21,SSE,160,0.0,3.0,81,0.00,,,0.00,,2013-04-15 13:23:00,
2013-04-15 09:33:00,56.0,51.0,30.21,SSE,160,0.0,0.0,83,0.00,,,0.00,,2013-04-15 13:33:00,
2013-04-15 09:43:00,56.0,51.0,30.21,SSE,160,0.0,0.0,83,0.00,,,0.00,,2013-04-15 13:43:00,
2013-04-15 09:54:00,57.0,51.0,30.22,SSE,150,0.0,1.0,81,0.00,,,0.00,,2013-04-15 13:54:00,
2013-04-15 10:05:00,57.0,51.0,30.21,SE,136,0.0,4.0,80,0.00,,,0.00,,2013-04-15 14:05:00,
2013-04-15 10:23:00,57.0,51.0,30.21,SE,136,0.0,0.0,79,0.00,,,0.00,,2013-04-15 14:23:00,
2013-04-15 10:33:00,58.0,52.0,30.21,SE,132,0.0,0.0,79,0.00,,,0.00,,2013-04-15 14:33:00,
2013-04-15 10:44:00,58.0,52.0,30.21,SE,132,0.0,0.0,79,0.00,,,0.00,,2013-04-15 14:44:00,
2013-04-15 10:54:00,59.0,51.0,30.22,ENE,65,2.0,6.0,76,0.00,,,0.00,,2013-04-15 14:54:00,
2013-04-15 11:04:00,59.0,52.0,30.21,NE,48,1.0,6.0,77,0.00,,,0.00,,2013-04-15 15:04:00,
2013-04-15 11:13:00,59.0,52.0,30.21,NE,48,1.0,6.0,77,0.00,,,0.00,,2013-04-15 15:13:00,
2013-04-15 11:24:00,59.0,52.0,30.21,ENE,76,1.0,8.0,77,0.00,,,0.00,,2013-04-15 15:24:00,
2013-04-15 11:44:00,60.0,52.0,30.21,ENE,65,1.0,5.0,75,0.00,,,0.00,,2013-04-15 15:44:00,
2013-04-15 11:55:00,60.0,51.0,30.21,ENE,63,3.0,6.0,73,0.00,,,0.00,,2013-04-15 15:55:00,
2013-04-15 12:05:00,60.0,50.0,30.21,ENE,61,0.0,6.0,70,0.00,,,0.00,,2013-04-15 16:05:00,
2013-04-15 12:14:00,60.0,50.0,30.21,ENE,61,0.0,6.0,70,0.00,,,0.00,,2013-04-15 16:14:00,
2013-04-15 12:25:00,59.0,50.0,30.22,ENE,66,0.0,8.0,71,0.00,,,0.00,,2013-04-15 16:25:00,
2013-04-15 12:44:00,59.0,49.0,30.22,ENE,68,0.0,5.0,69,0.00,,,0.00,,2013-04-15 16:44:00,
2013-04-15 12:54:00,60.0,49.0,30.23,ENE,74,1.0,4.0,68,0.00,,,0.00,,2013-04-15 16:54:00,
2013-04-15 13:04:00,60.0,49.0,30.23,East,79,0.0,4.0,68,0.00,,,0.00,,2013-04-15 17:04:00,
2013-04-15 13:15:00,60.0,49.0,30.23,East,79,0.0,4.0,68,0.00,,,0.00,,2013-04-15 17:15:00,
2013-04-15 13:22:00,60.0,50.0,30.22,ENE,68,1.0,6.0,69,0.00,,,0.00,,2013-04-15 17:22:00,
2013-04-15 13:33:00,61.0,50.0,30.23,ENE,73,0.0,6.0,67,0.00,,,0.00,,2013-04-15 17:33:00,
2013-04-15 13:43:00,61.0,50.0,30.23,ENE,73,0.0,6.0,67,0.00,,,0.00,,2013-04-15 17:43:00,
2013-04-15 13:52:00,61.0,50.0,30.22,ENE,69,0.0,5.0,67,0.00,,,0.00,,2013-04-15 17:52:00,
2013-04-15 14:03:00,61.0,50.0,30.22,ENE,67,2.0,6.0,68,0.00,,,0.00,,2013-04-15 18:03:00,
2013-04-15 14:13:00,61.0,50.0,30.22,ENE,67,2.0,6.0,68,0.00,,,0.00,,2013-04-15 18:13:00,
2013-04-15 14:24:00,62.0,50.0,30.22,SE,138,0.0,3.0,65,0.00,,,0.00,,2013-04-15 18:24:00,
2013-04-15 14:33:00,62.0,51.0,30.22,ENE,57,0.0,10.0,66,0.00,,,0.00,,2013-04-15 18:33:00,
2013-04-15 14:42:00,62.0,51.0,30.22,ENE,57,0.0,10.0,66,0.00,,,0.00,,2013-04-15 18:42:00,
2013-04-15 14:52:00,61.0,50.0,30.22,ENE,75,0.0,5.0,67,0.00,,,0.00,,2013-04-15 18:52:00,
2013-04-15 15:02:00,61.0,50.0,30.22,East,81,0.0,6.0,68,0.00,,,0.00,,2013-04-15 19:02:00,
2013-04-15 15:12:00,61.0,50.0,30.22,East,81,0.0,6.0,68,0.00,,,0.00,,2013-04-15 19:12:00,
2013-04-15 15:22:00,61.0,50.0,30.22,ESE,114,0.0,0.0,68,0.00,,,0.00,,2013-04-15 19:22:00,
2013-04-15 15:38:00,61.0,50.0,30.22,ESE,114,0.0,0.0,68,0.00,,,0.00,,2013-04-15 19:38:00,
2013-04-15 15:54:00,61.0,50.0,30.22,ESE,114,0.0,0.0,68,0.00,,,0.00,,2013-04-15 19:54:00,
2013-04-15 16:01:00,61.0,50.0,30.22,ESE,114,0.0,0.0,68,0.00,,,0.00,,2013-04-15 20:01:00,
2013-04-15 16:02:00,60.0,49.0,30.22,SE,139,0.0,1.0,68,0.00,,,0.00,,2013-04-15 20:02:00,
2013-04-15 16:12:00,60.0,49.0,30.22,SE,139,0.0,1.0,68,0.00,,,0.00,,2013-04-15 20:12:00,
2013-04-15 16:22:00,60.0,50.0,30.22,East,84,1.0,6.0,69,0.00,,,0.00,,2013-04-15 20:22:00,
2013-04-15 16:32:00,59.0,49.0,30.22,ENE,68,0.0,4.0,69,0.00,,,0.00,,2013-04-15 20:32:00,
2013-04-15 16:42:00,59.0,49.0,30.22,ENE,68,0.0,4.0,69,0.00,,,0.00,,2013-04-15 20:42:00,
2013-04-15 16:52:00,59.0,49.0,30.22,East,82,0.0,2.0,69,0.00,,,0.00,,2013-04-15 20:52:00,
2013-04-15 17:02:00,60.0,49.0,30.22,ENE,60,0.0,5.0,68,0.00,,,0.00,,2013-04-15 21:02:00,
2013-04-15 17:12:00,60.0,49.0,30.22,ENE,60,0.0,5.0,68,0.00,,,0.00,,2013-04-15 21:12:00,
2013-04-15 17:22:00,60.0,49.0,30.22,ENE,76,1.0,8.0,68,0.00,,,0.00,,2013-04-15 21:22:00,
2013-04-15 17:33:00,60.0,49.0,30.22,ESE,116,1.0,5.0,67,0.00,,,0.00,,2013-04-15 21:33:00,
2013-04-15 17:43:00,60.0,49.0,30.22,ESE,116,1.0,5.0,67,0.00,,,0.00,,2013-04-15 21:43:00,
2013-04-15 17:53:00,61.0,50.0,30.22,ESE,114,0.0,6.0,66,0.01,,,0.01,,2013-04-15 21:53:00,
2013-04-15 18:02:00,60.0,49.0,30.22,SE,127,0.0,6.0,66,0.01,,,0.01,,2013-04-15 22:02:00,
2013-04-15 18:13:00,60.0,49.0,30.22,SE,127,0.0,6.0,66,0.01,,,0.01,,2013-04-15 22:13:00,
2013-04-15 18:23:00,60.0,49.0,30.22,SSE,148,0.0,1.0,67,0.01,,,0.01,,2013-04-15 22:23:00,
2013-04-15 18:33:00,59.0,48.0,30.23,ENE,78,0.0,4.0,67,0.01,,,0.01,,2013-04-15 22:33:00,
2013-04-15 18:42:00,59.0,48.0,30.23,ENE,78,0.0,4.0,67,0.01,,,0.01,,2013-04-15 22:42:00,
2013-04-15 18:52:00,59.0,48.0,30.23,East,94,0.0,1.0,67,0.00,,,0.01,,2013-04-15 22:52:00,
2013-04-15 19:02:00,59.0,48.0,30.23,ENE,74,0.0,3.0,68,0.00,,,0.01,,2013-04-15 23:02:00,
2013-04-15 19:12:00,59.0,48.0,30.23,ENE,74,0.0,3.0,68,0.00,,,0.01,,2013-04-15 23:12:00,
2013-04-15 19:22:00,59.0,48.0,30.24,SE,138,0.0,4.0,67,0.00,,,0.01,,2013-04-15 23:22:00,
2013-04-15 19:32:00,59.0,48.0,30.24,ESE,106,0.0,0.0,67,0.00,,,0.01,,2013-04-15 23:32:00,
2013-04-15 19:42:00,59.0,48.0,30.24,ESE,106,0.0,0.0,67,0.00,,,0.01,,2013-04-15 23:42:00,
2013-04-15 19:52:00,58.0,47.0,30.24,SE,130,0.0,2.0,67,0.00,,,0.01,,2013-04-15 23:52:00,
2013-04-15 20:02:00,58.0,47.0,30.24,East,90,0.0,3.0,66,0.00,,,0.01,,2013-04-16 00:02:00,
2013-04-15 20:12:00,58.0,47.0,30.24,East,90,0.0,3.0,66,0.00,,,0.01,,2013-04-16 00:12:00,
2013-04-15 20:22:00,58.0,47.0,30.25,East,86,0.0,1.0,66,0.00,,,0.01,,2013-04-16 00:22:00,
2013-04-15 20:32:00,58.0,47.0,30.25,East,79,0.0,3.0,66,0.00,,,0.01,,2013-04-16 00:32:00,
2013-04-15 20:42:00,58.0,47.0,30.25,East,79,0.0,3.0,66,0.00,,,0.01,,2013-04-16 00:42:00,
2013-04-15 20:52:00,57.0,46.0,30.25,East,82,0.0,1.0,67,0.00,,,0.01,,2013-04-16 00:52:00,
2013-04-15 21:02:00,57.0,46.0,30.26,East,101,0.0,1.0,67,0.00,,,0.01,,2013-04-16 01:02:00,
2013-04-15 21:12:00,57.0,47.0,30.26,East,96,0.0,1.0,68,0.00,,,0.01,,2013-04-16 01:12:00,
2013-04-15 21:22:00,57.0,47.0,30.26,East,96,0.0,1.0,68,0.00,,,0.01,,2013-04-16 01:22:00,
2013-04-15 21:32:00,57.0,47.0,30.27,East,89,0.0,2.0,69,0.00,,,0.01,,2013-04-16 01:32:00,
2013-04-15 21:42:00,57.0,47.0,30.27,East,89,0.0,2.0,69,0.00,,,0.01,,2013-04-16 01:42:00,
2013-04-15 21:52:00,57.0,47.0,30.27,ENE,65,0.0,3.0,70,0.00,,,0.01,,2013-04-16 01:52:00,
2013-04-15 22:02:00,57.0,47.0,30.28,ENE,65,0.0,1.0,70,0.00,,,0.01,,2013-04-16 02:02:00,
2013-04-15 22:12:00,57.0,47.0,30.28,ENE,65,0.0,1.0,70,0.00,,,0.01,,2013-04-16 02:12:00,
2013-04-15 22:22:00,57.0,48.0,30.28,ENE,68,0.0,0.0,71,0.00,,,0.01,,2013-04-16 02:22:00,
2013-04-15 22:32:00,57.0,48.0,30.28,ENE,75,0.0,0.0,71,0.00,,,0.01,,2013-04-16 02:32:00,
2013-04-15 22:42:00,57.0,48.0,30.28,ENE,75,0.0,0.0,71,0.00,,,0.01,,2013-04-16 02:42:00,
2013-04-15 22:52:00,57.0,48.0,30.27,East,101,0.0,0.0,72,0.00,,,0.01,,2013-04-16 02:52:00,
2013-04-15 23:02:00,57.0,48.0,30.28,ESE,102,0.0,0.0,72,0.00,,,0.01,,2013-04-16 03:02:00,
2013-04-15 23:12:00,57.0,48.0,30.28,ESE,102,0.0,0.0,72,0.00,,,0.01,,2013-04-16 03:12:00,
2013-04-15 23:22:00,57.0,48.0,30.28,SSE,148,0.0,0.0,72,0.00,,,0.01,,2013-04-16 03:22:00,
2013-04-15 23:33:00,56.0,47.0,30.27,SSE,148,0.0,0.0,73,0.00,,,0.01,,2013-04-16 03:33:00,
2013-04-15 23:43:00,56.0,47.0,30.27,SSE,148,0.0,0.0,73,0.00,,,0.01,,2013-04-16 03:43:00,
2013-04-15 23:53:00,56.0,48.0,30.27,SSE,148,0.0,0.0,74,0.00,,,0.01,,2013-04-16 03:53:00,